Location: Alladorf
(49.9620°N, 11.3790°E)
Time: 20:42:09
(UTC+00:00)

SKYMED 2 - Pass Details

Date: 29 November 2020
Orbit: 621 x 623 km, 97.9° (Epoch: 25 January)

Event Time Altitude Azimuth Distance (km) Brightness Sun altitude
Rises 04:11:12 0° 162° (SSE) 2,892 7.3 -24.5°
Reaches altitude 10° 04:13:22 10° 161° (SSE) 1,990 6.4 -24.2°
Maximum altitude 04:17:42 82° 75° (ENE) 638 3.5 -23.5°
Enters shadow 04:19:01 45° 354° (N) 859 4.1 -23.3°
